{"data":{"norad_id":53604,"intl_designator":"2022-104S","name":"STARLINK-4690","alt_names":[],"object_type":"PAYLOAD","status":"ACTIVE","operator":null,"country":"US","launch_date":"2022-08-28","launch_site_code":"AFETR","launch_vehicle":null,"mission":null,"orbit_class":"UNKNOWN","rcs_meters":null,"size_class":null,"mass_kg":null,"dimensions":null,"purposes":["comms"],"wikipedia_slug":null,"has_3d_model":false,"image_url":null,"decayed_at":null,"tle_current":{"epoch":"2026-05-25T00:59:56.736096Z","epoch_age_seconds":81526,"freshness":"FRESH","line1":"1 53604U 22104S   26145.04162889  .00000149  00000+0  27436-4 0  9992","line2":"2 53604  53.2149 256.2212 0001298  82.1247 277.9892 15.08840394207216","mean_motion":15.08840394,"eccentricity":0.0001298,"inclination_deg":53.2149,"raan_deg":256.2212,"arg_perigee_deg":82.1247,"mean_anomaly_deg":277.9892,"bstar":2.7436e-5,"rev_number":20721,"period_min":95.437529756378,"perigee_km":538.84424394582,"apogee_km":540.64012538216,"semimajor_km":6917.879184664,"source":"CELESTRAK","updated_at":"2026-05-25T13:38:17.476364Z"}}}